Location: Bronnegerveen
(52.9548°N, 6.8388°E)
Time: 02:52:50
(UTC+00:00)

MOZ.5/SAFIR/RUBIN 5/SL-8 - Pass Details

Date: 15 June 2025
Orbit: 668 x 694 km, 98.3° (Epoch: 07 July)

Event Time Altitude Azimuth Distance (km) Brightness Sun altitude
Exits shadow 01:03:05 - 156° (SSE) 2,437 6.2 -11.3°
Reaches altitude 10° 01:03:55 10° 155° (SSE) 2,094 5.9 -11.2°
Maximum altitude 01:08:28 73° 72° (ENE) 705 3.9 -11.0°
Drops below altitude 10° 01:13:04 10° 348° (NNW) 2,111 7.2 -10.7°
Sets 01:15:19 0° 347° (NNW) 3,030 8.0 -10.6°
